Location: Godiavel Galaoual
(15.2485°N, 12.6604°W)
Time: 08:22:15
(UTC+00:00)

SJ 16-02 - Pass Details

Date: 27 February 2020
Orbit: 607 x 616 km, 75.0° (Epoch: 06 April)

Event Time Altitude Azimuth Distance (km) Brightness Sun altitude
Rises 20:45:31 0° 343° (NNW) 2,860 5.0 -26.7°
Reaches altitude 10° 20:47:45 10° 341° (NNW) 1,955 4.1 -27.2°
Enters shadow 20:49:55 28° 334° (NNW) 1,132 2.8 -27.8°
